Temp
-11 -11 -11 -11 -10 -10 -10 -10 -11 -12 -13 -14 -15 -17 -17 -17 -17 -16 -16 -16 -17 -17 -18 -18 -18 -18 -17 -16 -14 -14 -12 -11 -11 -11 -11 -12 -11 -11 -12 -11 -11 -11 -10 -10 -10
-11 -11 -11 -11 -10 -10 -11 -11 -12 -13 -14 -15 -16 -17 -18 -17 -17 -17 -17 -17 -18 -18 -19 -18 -18 -19 -18 -18 -16 -15 -13 -12 -11 -11 -11 -12 -12 -11 -12 -12 -11 -11 -11 -11 -11
-12 -11 -11 -11 -11 -11 -11 -12 -13 -14 -15 -15 -16 -17 -18 -17 -17 -17 -17 -18 -19 -19 -19 -19 -19 -19 -19 -19 -18 -16 -14 -13 -12 -12 -12 -12 -12 -12 -12 -12 -12 -11 -11 -11 -12
-12 -12 -11 -11 -11 -11 -12 -13 -14 -15 -15 -15 -16 -17 -17 -17 -18 -18 -17 -18 -19 -19 -19 -19 -19 -19 -19 -19 -19 -18 -16 -15 -13 -13 -12 -13 -12 -12 -12 -12 -12 -12 -10 -11 -12
-12 -12 -12 -12 -12 -12 -12 -13 -14 -15 -15 -16 -16 -17 -18 -18 -18 -18 -18 -18 -19 -19 -19 -19 -19 -19 -19 -19 -19 -19 -18 -17 -15 -14 -14 -13 -13 -12 -12 -12 -12 -12 -11 -11 -12
-13 -12 -12 -12 -12 -12 -13 -14 -14 -15 -16 -16 -17 -18 -18 -18 -19 -19 -18 -19 -19 -19 -19 -19 -19 -19 -19 -19 -19 -19 -19 -18 -17 -16 -15 -14 -13 -12 -12 -12 -13 -12 -12 -11 -12
-13 -13 -12 -12 -12 -13 -13 -14 -14 -15 -16 -16 -17 -18 -18 -18 -18 -18 -18 -19 -19 -19 -19 -19 -19 -19 -19 -19 -19 -19 -18 -18 -18 -17 -16 -15 -14 -12 -13 -13 -13 -13 -12 -12 -12
-13 -13 -13 -13 -13 -13 -13 -14 -14 -15 -16 -16 -17 -18 -18 -18 -18 -18 -18 -18 -19 -19 -19 -19 -19 -19 -19 -19 -19 -19 -19 -19 -18 -18 -17 -15 -14 -13 -13 -13 -13 -13 -12 -12 -11
-13 -13 -13 -13 -13 -13 -13 -14 -14 -15 -16 -16 -17 -17 -17 -18 -18 -18 -18 -18 -18 -18 -19 -19 -19 -19 -19 -19 -19 -19 -19 -19 -19 -18 -18 -16 -15 -14 -13 -13 -13 -13 -13 -12 -12
-13 -13 -13 -13 -13 -13 -13 -14 -14 -15 -16 -16 -16 -16 -17 -18 -18 -18 -18 -18 -18 -19 -19 -19 -19 -19 -19 -19 -19 -19 -19 -19 -19 -19 -18 -17 -16 -15 -14 -14 -13 -13 -13 -13 -12
-13 -13 -13 -13 -13 -13 -13 -13 -14 -14 -15 -16 -17 -17 -16 -17 -18 -18 -18 -18 -18 -18 -19 -19 -19 -19 -19 -19 -19 -19 -19 -19 -19 -18 -18 -17 -16 -16 -15 -14 -14 -13 -13 -13 -13
-14 -14 -14 -13 -13 -13 -13 -13 -14 -14 -15 -15 -16 -17 -16 -17 -17 -18 -18 -18 -18 -18 -18 -18 -18 -19 -19 -19 -19 -19 -19 -18 -18 -18 -18 -18 -17 -16 -15 -14 -14 -14 -14 -13 -12
-14 -14 -14 -14 -14 -14 -13 -13 -13 -14 -15 -15 -16 -17 -17 -17 -17 -17 -17 -17 -18 -18 -18 -18 -18 -18 -19 -19 -19 -19 -19 -19 -19 -19 -18 -18 -17 -17 -16 -15 -14 -14 -14 -13 -13
-14 -14 -14 -14 -14 -14 -14 -14 -14 -14 -14 -15 -15 -16 -17 -17 -17 -18 -18 -17 -18 -18 -18 -18 -18 -19 -19 -19 -19 -19 -19 -19 -19 -19 -19 -18 -18 -17 -16 -15 -15 -14 -14 -13 -13
-14 -14 -14 -14 -14 -14 -14 -14 -14 -14 -14 -14 -15 -16 -16 -17 -17 -17 -18 -18 -17 -17 -18 -18 -18 -18 -18 -19 -19 -19 -19 -19 -19 -19 -19 -18 -18 -17 -16 -15 -15 -14 -14 -13 -13
-14 -14 -14 -14 -14 -14 -14 -14 -14 -14 -14 -15 -15 -15 -15 -16 -17 -17 -17 -18 -17 -18 -18 -18 -18 -18 -18 -19 -19 -19 -19 -19 -19 -19 -19 -18 -18 -18 -16 -15 -15 -14 -14 -14 -14
-15 -15 -14 -14 -14 -14 -14 -14 -14 -14 -14 -15 -15 -15 -15 -15 -16 -17 -17 -17 -17 -17 -18 -18 -18 -18 -19 -19 -19 -19 -19 -19 -19 -19 -19 -18 -18 -18 -17 -16 -16 -15 -14 -14 -14
-15 -15 -15 -15 -15 -14 -15 -15 -14 -14 -14 -15 -15 -15 -15 -15 -16 -16 -17 -17 -18 -18 -18 -18 -18 -18 -19 -19 -19 -19 -19 -19 -19 -19 -19 -18 -18 -17 -17 -16 -16 -15 -15 -15 -15
-15 -15 -15 -15 -15 -15 -15 -15 -15 -15 -14 -14 -15 -15 -15 -15 -15 -16 -16 -17 -17 -17 -18 -18 -18 -18 -18 -18 -19 -19 -19 -19 -19 -19 -18 -18 -17 -17 -17 -17 -16 -15 -15 -15 -15
-15 -15 -15 -16 -15 -15 -15 -15 -15 -15 -15 -15 -15 -15 -15 -15 -15 -15 -16 -16 -16 -17 -17 -18 -18 -18 -18 -18 -19 -19 -19 -19 -19 -19 -18 -18 -18 -17 -17 -17 -16 -16 -15 -15 -15
-16 -16 -16 -16 -16 -16 -15 -15 -15 -15 -15 -15 -15 -15 -15 -15 -15 -15 -15 -16 -16 -16 -16 -17 -17 -18 -18 -19 -19 -19 -18 -18 -18 -18 -18 -18 -18 -17 -17 -17 -16 -16 -16 -15 -14
-16 -16 -16 -16 -16 -16 -16 -16 -15 -16 -16 -15 -15 -15 -15 -15 -15 -15 -15 -16 -16 -16 -16 -16 -17 -17 -17 -17 -18 -18 -18 -19 -18 -18 -18 -18 -18 -17 -16 -16 -16 -16 -16 -15 -15
-17 -17 -16 -16 -16 -16 -16 -16 -16 -16 -16 -16 -16 -15 -15 -15 -15 -15 -15 -15 -16 -16 -16 -16 -16 -16 -17 -17 -17 -17 -18 -18 -17 -18 -17 -17 -17 -17 -16 -16 -16 -16 -16 -15 -15
-16 -16 -17 -17 -16 -16 -16 -16 -16 -16 -16 -16 -16 -16 -16 -15 -15 -15 -15 -15 -15 -16 -16 -16 -16 -16 -16 -16 -16 -16 -16 -16 -16 -17 -17 -16 -16 -16 -16 -16 -16 -16 -16 -16 -15
-17 -16 -16 -16 -17 -17 -17 -17 -17 -16 -16 -16 -16 -16 -16 -16 -16 -16 -16 -15 -15 -15 -16 -16 -16 -16 -16 -16 -16 -16 -16 -16 -16 -16 -16 -16 -16 -16 -15 -15 -15 -16 -16 -15 -16
-16 -16 -16 -16 -17 -17 -17 -17 -17 -17 -17 -17 -16 -17 -16 -17 -16 -16 -16 -16 -16 -15 -15 -16 -16 -16 -16 -16 -16 -16 -16 -16 -16 -16 -16 -15 -15 -16 -16 -16 -16 -15 -16 -15 -15
-16 -16 -16 -16 -16 -16 -17 -17 -18 -18 -18 -17 -17 -17 -17 -17 -16 -17 -16 -16 -16 -16 -16 -16 -15 -15 -15 -16 -15 -16 -16 -16 -16 -16 -16 -15 -15 -15 -15 -15 -15 -15 -15 -15 -15
Height
5823 5820 5816 5811 5807 5802 5795 5787 5777 5767 5757 5748 5737 5728 5722 5718 5714 5711 5708 5705 5702 5700 5698 5698 5699 5700 5702 5707 5717 5727 5738 5751 5759 5768 5781 5796 5806 5813 5820 5828 5835 5839 5846 5850 5854
5820 5817 5813 5808 5804 5798 5791 5782 5773 5762 5752 5742 5731 5721 5715 5713 5710 5705 5702 5697 5693 5691 5690 5690 5690 5691 5694 5697 5703 5713 5727 5737 5745 5755 5768 5784 5795 5802 5811 5820 5827 5833 5839 5845 5850
5818 5814 5810 5805 5801 5795 5787 5778 5769 5759 5749 5739 5726 5717 5711 5709 5705 5701 5695 5690 5687 5685 5684 5684 5684 5684 5687 5690 5694 5703 5717 5724 5732 5744 5757 5773 5783 5793 5802 5811 5820 5828 5832 5839 5844
5816 5812 5808 5803 5798 5792 5785 5776 5767 5756 5747 5736 5724 5715 5710 5705 5703 5697 5690 5684 5682 5681 5680 5679 5680 5679 5682 5685 5689 5697 5703 5713 5721 5734 5746 5760 5772 5784 5794 5802 5813 5820 5823 5828 5836
5813 5809 5805 5801 5796 5790 5783 5775 5765 5755 5745 5736 5724 5715 5709 5705 5701 5694 5687 5681 5679 5678 5677 5676 5676 5676 5679 5683 5686 5691 5696 5703 5711 5723 5734 5750 5762 5774 5786 5796 5805 5813 5818 5820 5826
5811 5807 5804 5799 5794 5788 5781 5773 5764 5755 5745 5734 5725 5716 5709 5704 5699 5693 5685 5680 5677 5677 5676 5674 5674 5675 5677 5681 5684 5687 5691 5696 5701 5713 5725 5741 5753 5765 5778 5787 5797 5806 5812 5816 5817
5810 5806 5802 5798 5792 5787 5780 5772 5765 5755 5746 5735 5724 5716 5709 5705 5699 5693 5686 5680 5678 5677 5675 5674 5674 5675 5675 5679 5682 5686 5691 5692 5697 5707 5718 5733 5744 5757 5766 5778 5790 5798 5804 5808 5816
5809 5805 5801 5797 5791 5786 5779 5772 5765 5757 5747 5737 5725 5717 5710 5705 5700 5694 5688 5682 5679 5677 5677 5675 5674 5674 5677 5679 5681 5684 5687 5690 5695 5700 5713 5726 5738 5746 5759 5770 5783 5790 5798 5805 5809
5807 5804 5800 5796 5791 5785 5779 5772 5765 5758 5748 5738 5729 5719 5712 5707 5701 5697 5691 5686 5681 5679 5677 5677 5676 5676 5676 5679 5681 5683 5685 5688 5691 5697 5707 5719 5730 5740 5751 5763 5774 5783 5793 5799 5804
5805 5802 5798 5795 5790 5784 5778 5772 5765 5759 5750 5740 5732 5723 5713 5709 5703 5698 5694 5689 5686 5682 5680 5678 5677 5676 5678 5678 5680 5681 5684 5686 5689 5695 5701 5712 5725 5733 5743 5755 5766 5775 5784 5792 5797
5804 5800 5797 5793 5789 5784 5778 5772 5767 5761 5751 5742 5734 5725 5716 5710 5705 5701 5696 5691 5689 5686 5682 5677 5676 5676 5676 5677 5678 5680 5682 5685 5687 5691 5696 5707 5718 5725 5737 5747 5758 5767 5777 5784 5790
5803 5799 5795 5791 5787 5783 5778 5772 5766 5761 5753 5745 5737 5729 5721 5713 5707 5702 5699 5696 5691 5687 5684 5681 5677 5676 5675 5676 5678 5681 5682 5683 5685 5688 5693 5700 5711 5719 5730 5739 5750 5759 5768 5776 5784
5803 5798 5794 5790 5786 5783 5778 5771 5766 5760 5755 5748 5739 5732 5725 5718 5711 5706 5701 5697 5694 5690 5686 5683 5681 5678 5677 5677 5678 5680 5681 5681 5682 5685 5690 5697 5704 5713 5723 5733 5742 5751 5760 5768 5778
5803 5798 5794 5790 5787 5782 5778 5772 5766 5760 5755 5751 5743 5736 5729 5722 5716 5710 5704 5700 5695 5692 5689 5687 5684 5682 5680 5679 5680 5681 5680 5680 5681 5684 5688 5694 5702 5708 5718 5726 5735 5745 5755 5764 5772
5801 5797 5793 5789 5785 5781 5777 5772 5767 5761 5756 5752 5745 5739 5732 5726 5720 5715 5709 5702 5697 5693 5691 5689 5686 5684 5682 5681 5681 5682 5681 5681 5682 5684 5687 5692 5699 5705 5712 5720 5729 5739 5747 5756 5763
5798 5795 5792 5788 5784 5780 5775 5772 5768 5764 5757 5752 5747 5741 5736 5729 5724 5718 5714 5708 5702 5696 5692 5691 5689 5686 5684 5683 5682 5682 5682 5683 5686 5685 5688 5691 5696 5699 5707 5717 5724 5731 5739 5747 5750
5794 5792 5789 5786 5783 5778 5774 5771 5769 5763 5759 5754 5748 5742 5738 5732 5727 5722 5717 5713 5708 5702 5697 5693 5690 5687 5684 5683 5684 5683 5684 5685 5688 5688 5690 5692 5696 5699 5704 5710 5717 5725 5734 5742 5746
5790 5787 5785 5783 5780 5777 5773 5770 5766 5763 5758 5754 5749 5744 5739 5735 5730 5725 5721 5717 5712 5707 5702 5697 5694 5690 5686 5685 5686 5686 5687 5688 5689 5691 5691 5693 5696 5699 5703 5707 5714 5721 5729 5736 5742
5784 5782 5780 5778 5776 5774 5771 5768 5764 5761 5758 5754 5750 5745 5741 5737 5733 5728 5724 5720 5716 5712 5709 5703 5699 5695 5690 5688 5689 5688 5689 5690 5690 5691 5692 5694 5696 5699 5703 5706 5711 5718 5725 5732 5738
5776 5776 5774 5773 5771 5770 5768 5766 5762 5759 5756 5752 5750 5746 5741 5737 5734 5730 5727 5723 5719 5715 5712 5708 5704 5700 5697 5693 5691 5690 5691 5693 5693 5693 5693 5694 5696 5699 5701 5705 5709 5715 5721 5727 5734
5769 5768 5768 5767 5766 5765 5763 5761 5759 5757 5754 5751 5747 5745 5742 5738 5734 5731 5728 5725 5721 5718 5715 5712 5709 5707 5702 5699 5697 5695 5693 5694 5695 5695 5694 5694 5697 5699 5702 5705 5707 5712 5717 5722 5728
5759 5759 5760 5759 5759 5758 5757 5756 5755 5753 5750 5748 5745 5742 5740 5737 5734 5731 5728 5725 5722 5720 5717 5714 5711 5708 5707 5704 5701 5699 5698 5697 5696 5697 5696 5696 5697 5697 5701 5705 5708 5710 5714 5719 5724
5746 5748 5750 5751 5750 5751 5751 5750 5749 5747 5745 5744 5741 5739 5736 5734 5733 5730 5727 5725 5722 5719 5717 5715 5712 5710 5708 5707 5704 5703 5701 5699 5698 5697 5697 5698 5699 5697 5699 5703 5707 5710 5714 5717 5720
5734 5734 5738 5739 5740 5741 5742 5744 5742 5741 5740 5738 5737 5735 5733 5730 5729 5727 5726 5723 5721 5718 5716 5715 5712 5711 5709 5706 5704 5703 5701 5701 5699 5698 5697 5698 5698 5699 5700 5703 5706 5709 5712 5715 5716
5719 5719 5723 5725 5729 5729 5731 5733 5735 5733 5733 5733 5732 5728 5728 5726 5724 5722 5721 5720 5719 5716 5714 5713 5711 5710 5708 5707 5705 5703 5701 5700 5700 5699 5698 5699 5698 5699 5700 5702 5704 5706 5708 5710 5711
5704 5707 5707 5710 5713 5715 5716 5721 5725 5724 5723 5725 5725 5722 5722 5720 5718 5716 5715 5714 5714 5713 5711 5709 5708 5707 5706 5704 5703 5703 5701 5700 5699 5698 5698 5698 5698 5700 5700 5700 5702 5703 5704 5705 5707
5685 5689 5692 5694 5697 5700 5703 5708 5710 5711 5712 5714 5715 5716 5715 5713 5712 5711 5709 5708 5707 5707 5706 5705 5703 5702 5702 5700 5700 5701 5699 5698 5698 5697 5697 5696 5697 5697 5698 5699 5699 5700 5701 5702 5704
Wind_Speed
15 16 20 21 24 27 33 39 41 46 49 50 42 36 30 25 24 26 30 31 33 32 32 34 36 38 40 48 70 74 75 73 71 67 66 60 58 57 55 49 45 42 40 37 33
15 17 20 21 25 28 33 39 43 47 50 48 40 34 26 22 23 26 28 29 28 25 25 25 23 27 34 31 56 72 76 77 76 73 67 62 61 60 58 54 49 46 42 41 35
14 16 19 21 25 29 35 40 44 47 47 45 38 31 21 20 22 24 29 25 19 18 18 17 16 20 25 33 35 60 74 78 79 76 71 64 66 63 61 58 52 48 45 41 38
12 16 18 22 26 30 35 40 44 46 46 45 39 27 19 21 22 26 28 19 16 12 14 11 14 18 22 31 36 37 67 75 78 76 74 66 66 65 63 61 55 51 52 50 42
14 16 18 22 27 31 34 39 43 46 47 46 40 27 21 19 22 29 26 15 12 11 11 9 12 17 19 23 31 35 45 66 74 73 73 68 68 68 64 62 58 55 55 50 47
14 17 18 21 26 30 33 38 41 44 47 48 43 32 23 23 25 25 24 16 8 8 10 9 10 15 18 17 21 29 32 44 67 69 69 67 69 68 66 64 61 57 55 52 53
14 17 19 21 25 29 33 36 39 42 44 48 44 36 25 23 24 24 28 17 7 7 7 7 4 10 16 15 17 22 25 33 51 61 63 65 69 70 69 66 62 60 58 56 52
14 16 18 20 25 29 32 34 37 39 42 46 44 38 26 22 24 23 27 19 7 7 7 4 6 7 15 16 18 20 28 21 38 49 54 63 67 70 69 67 63 62 59 55 55
15 16 18 19 23 27 31 33 36 37 39 43 43 38 25 24 23 21 21 23 12 6 6 5 9 12 16 15 17 18 18 24 29 39 47 58 62 67 70 68 66 64 61 57 53
16 15 18 20 23 26 29 32 34 36 38 41 43 41 30 25 24 21 20 24 21 19 11 9 7 10 12 16 16 17 18 19 26 32 40 53 58 64 67 69 67 64 62 60 55
17 15 16 19 22 25 28 32 33 33 36 40 41 38 35 29 26 25 22 22 21 23 21 13 6 4 13 18 15 18 7 20 20 31 35 45 53 59 63 68 67 66 61 60 57
21 18 15 17 20 22 27 30 32 31 32 36 38 35 36 33 25 24 24 20 22 18 23 18 14 5 2 11 15 12 10 11 19 24 34 37 49 54 60 65 68 67 65 66 61
23 21 19 17 19 21 24 27 29 30 29 32 35 34 31 33 30 24 23 23 19 14 17 13 14 12 4 4 13 13 5 12 17 21 30 33 47 53 57 61 68 68 68 63 65
22 23 23 21 19 20 23 25 26 28 28 29 30 31 31 28 27 25 24 24 18 13 11 12 14 12 9 6 6 7 9 10 15 19 26 32 43 52 53 58 64 67 65 59 60
20 22 24 23 22 20 21 24 25 25 28 28 27 27 30 29 26 24 21 22 24 21 13 11 11 14 12 7 4 2 3 9 15 17 22 30 40 47 52 56 59 63 65 65 55
21 20 21 24 24 22 22 21 24 24 24 25 24 25 26 28 26 25 23 21 21 21 22 19 12 6 6 4 2 3 1 9 14 15 16 25 35 41 47 52 56 64 64 64 75
22 21 21 20 23 23 23 22 21 23 23 23 24 23 23 25 25 25 26 23 20 18 17 16 13 14 5 1 5 6 9 6 10 12 12 19 30 35 42 47 52 58 63 61 66
26 23 21 22 21 21 23 23 22 21 22 22 21 22 21 22 22 21 23 22 22 20 16 19 17 16 15 7 6 7 11 13 6 7 10 14 21 28 35 41 48 52 56 60 59
28 27 24 22 22 21 22 21 22 20 19 22 21 19 20 20 20 20 17 18 19 19 19 16 16 16 20 19 11 6 4 6 9 4 8 13 15 17 24 31 40 45 52 51 54
29 28 28 25 22 22 22 22 21 21 20 19 21 20 18 19 19 18 17 15 15 17 20 15 14 13 15 17 17 13 7 4 4 3 0 7 13 16 18 22 30 37 41 46 47
34 33 30 29 25 24 23 22 21 20 20 19 19 20 20 18 17 18 17 16 14 13 14 13 17 14 14 14 13 12 14 11 6 5 4 8 6 13 17 19 21 27 35 39 43
41 39 35 33 30 28 25 24 22 22 20 20 19 19 20 20 19 17 17 16 15 12 12 11 10 9 11 16 12 8 8 6 6 5 6 6 8 12 16 18 15 18 26 32 35
46 44 41 38 38 33 30 27 25 25 23 21 20 20 18 21 19 18 16 16 15 13 11 10 9 9 9 8 6 6 7 8 7 2 7 4 3 10 16 18 16 14 19 23 30
53 52 47 43 41 40 37 31 29 28 28 26 22 20 19 18 22 20 19 17 16 15 13 13 12 8 8 8 8 7 5 4 5 4 1 7 7 7 7 12 12 15 17 19 24
51 56 55 52 48 45 44 41 32 34 30 33 28 26 21 19 18 20 21 19 19 18 16 14 14 13 10 9 8 8 7 5 3 3 1 3 5 13 11 10 13 15 17 15 16
55 47 51 51 52 54 51 45 41 36 38 33 34 33 28 22 22 19 19 21 20 21 20 19 17 17 15 16 12 10 9 8 6 5 6 6 6 6 9 16 17 17 18 21 19
63 58 56 53 50 49 49 53 47 45 41 39 36 37 34 35 26 24 22 20 20 21 22 23 23 23 19 20 18 13 16 14 11 8 9 9 8 9 10 12 14 16 18 20 22
Wind_Direction
340 346 345 344 346 349 349 347 346 349 352 353 340 318 308 302 292 292 298 295 295 290 275 268 266 254 248 236 221 218 215 215 219 221 221 215 213 212 214 213 210 209 207 210 206
337 345 343 347 350 353 352 352 351 356 359 357 339 326 309 309 308 306 305 304 298 282 276 270 261 247 243 229 221 217 215 214 216 217 217 212 211 211 213 212 209 209 207 211 209
337 343 345 349 354 357 356 355 355 1 4 2 345 336 328 320 323 319 319 316 293 283 278 255 247 251 236 221 216 215 214 214 216 216 215 211 210 211 212 211 209 209 211 209 210
338 345 348 351 357 358 357 356 358 3 8 8 355 351 347 343 343 343 334 328 304 279 271 263 245 240 220 218 218 214 214 215 215 215 214 211 209 208 212 211 209 208 213 206 210
343 347 348 351 356 358 357 358 360 2 7 9 2 356 356 355 348 345 337 333 313 277 259 256 247 224 217 218 219 216 213 216 217 217 215 209 209 207 209 211 209 208 212 205 201
347 347 345 350 355 357 357 358 0 5 8 7 2 356 353 355 353 352 353 348 330 296 280 250 229 212 202 205 220 220 216 218 218 217 215 209 208 207 207 209 208 208 211 218 201
345 348 347 350 354 358 356 357 1 6 7 10 3 360 355 355 355 359 3 356 358 338 306 259 216 218 195 215 211 206 198 232 220 219 217 210 207 207 207 208 208 208 210 218 217
347 351 350 350 353 357 356 357 0 6 6 12 7 4 2 1 3 11 14 7 15 19 350 229 195 189 207 209 210 210 221 219 221 219 217 211 207 206 206 208 206 208 210 216 225
350 353 354 350 353 359 358 357 359 6 8 12 13 11 11 12 9 15 19 25 19 10 351 342 242 199 191 204 210 212 216 219 219 220 216 213 208 207 205 207 206 209 210 213 219
352 354 356 353 353 0 1 0 359 5 10 12 18 20 21 11 15 7 16 27 32 32 8 350 330 229 213 206 214 215 223 218 217 215 216 213 208 208 206 206 206 207 210 213 217
357 347 351 355 354 357 3 3 0 2 9 11 16 25 32 23 14 13 7 13 13 17 17 18 1 295 223 223 215 206 188 223 222 215 211 210 209 209 207 207 206 206 206 213 216
356 352 340 347 354 354 0 5 4 2 7 12 13 21 27 29 22 14 10 12 15 25 20 32 30 35 272 232 211 214 243 212 221 222 212 206 203 208 206 207 207 207 208 212 215
354 354 350 339 347 352 355 2 4 5 7 12 14 15 20 30 30 25 22 14 10 15 22 36 42 49 75 167 200 211 239 222 212 213 209 204 198 205 205 207 209 210 208 214 218
344 352 353 350 342 342 349 356 1 4 7 11 16 16 19 26 31 28 38 39 29 6 5 32 49 52 67 122 178 216 251 226 209 204 197 202 197 202 205 208 209 211 212 216 216
333 341 349 352 351 340 336 345 354 0 7 8 12 16 18 23 28 25 28 38 49 43 35 39 32 26 43 131 127 258 307 216 199 192 194 192 200 197 203 206 209 210 213 212 212
322 329 337 343 348 349 341 333 343 355 4 9 12 13 15 21 25 28 29 30 43 56 61 53 35 19 14 40 50 359 47 187 191 181 194 199 203 202 200 205 208 209 213 214 221
310 318 323 331 339 345 347 342 336 340 352 2 10 11 11 14 20 22 28 31 32 44 45 48 49 44 36 29 65 85 131 146 184 181 196 201 206 207 200 203 209 212 215 216 221
301 305 310 317 325 334 342 343 343 330 335 349 0 9 11 10 13 18 24 27 32 34 42 47 45 50 48 75 87 119 133 85 129 200 203 198 206 211 208 205 207 212 219 221 224
293 297 299 304 312 320 329 337 340 340 328 331 344 358 6 11 10 9 16 24 27 32 33 46 57 60 76 77 76 112 172 149 91 126 201 209 204 210 212 213 210 212 219 223 226
283 287 292 295 299 305 312 323 329 334 334 324 324 336 350 1 8 12 5 11 14 14 28 37 51 62 69 78 83 89 105 144 76 48 348 220 212 201 201 210 214 213 218 224 228
277 278 280 285 289 292 298 305 314 320 326 328 320 317 327 341 352 2 11 4 8 13 17 29 49 59 65 68 64 81 102 100 104 93 113 152 170 210 205 196 208 214 217 221 228
276 274 274 276 279 282 285 290 296 305 312 316 320 318 311 317 328 341 351 2 10 5 6 13 18 23 45 49 58 66 34 56 80 87 108 143 153 191 202 203 210 216 216 219 222
270 272 273 274 275 275 278 281 285 290 295 301 307 310 312 306 306 315 326 335 348 358 6 0 356 358 3 2 4 26 21 1 353 99 129 121 186 202 192 199 197 228 223 225 228
270 268 265 267 270 273 274 274 277 280 283 290 292 296 301 304 304 298 302 309 318 330 339 346 356 0 356 353 356 353 344 353 345 346 133 132 145 108 191 203 208 216 225 236 240
270 269 269 268 263 263 267 270 270 275 273 280 285 282 286 291 294 299 296 289 294 300 307 315 324 331 333 341 344 350 339 321 299 255 271 286 174 171 169 178 194 204 216 228 233
275 274 270 267 268 265 260 263 268 265 271 268 276 282 281 277 280 285 288 290 286 282 285 290 296 301 308 311 318 328 327 330 322 303 289 247 242 228 215 212 216 216 215 212 215
272 271 270 268 268 268 269 261 258 264 258 265 265 271 277 283 273 275 278 282 283 283 280 279 281 282 285 288 295 303 304 309 309 296 293 279 259 250 240 230 234 241 243 242 241